STARLINK-32466, 61859

Orbit data source: Space-Track

STARLINK-32466, 61859 is a payload satellite owned by SpaceX/Seattle (US) in LEO that was launched on Thu, 07 Nov 2024 UTC via an FALCON 9 launch vehicle from the Air Force Eastern Test Range (AFETR). Payloads include a variety of satellites, spacecraft, and rockets equipped with specific instruments for various scientific and technological missions. These include communications satellites like Starlink; space stations such as the ISS; scientific satellites like the Hubble; Earth observation satellites from companies like Planet Labs, Umbra, and HawkEye 360; GPS; miniature CubeSats for education and research; and military/defense satellites.

Loading next visibility...
STARLINK-32466 details
Identifier
61859, 2024-202Q
Orbit
LEO
Last TLE update9 hours ago
Origin
Flag of USSpaceX/Seattle (US)
ManufacturerSpaceX/Seattle
MissionOperational spacecraft
Bus & MotorSTARLINK V2M, Unknown motor
Mass730 kg wet, ~700 kg dry
Launch date (UTC)
2024-11-07 (2 months ago)
Launch vehicle
FALCON 9
Launch site
Air Force Eastern Test Range (AFETR)
Object type
Payload
Rocket body
Debris
Shape & HBRUnknown
Radar Cross SectionLarge (>1 m²)

Expand to show TLE details & history

TLE from 9 hours ago
0 STARLINK-32466
1 61859U 24202Q   24361.57719224 -.00003713  00000-0 -81602-4 0  9999
2 61859  43.0004 200.9004 0001336 279.0702  81.0003 15.40725407  8237
Epoch: 2024-12-26T13:51Z
Definitive object data (Epoch: 2024-12-26T13:51:09.409Z)
Latitude-0.00004°
Longitude-102.44344°
Altitude443.599 km
Speed7.648 km/s
True Right ascension13h 23m 36s
True Declination0° 00' 00"
Sunlit
Object was in daylight at TLE epoch
Visualization TLE readout
Latitude-0.36299°
Longitude75.88809°
Altitude443.97 km
Speed7.647 km/s
Apparent Right ascension04h 18m 25s
Apparent Declination-37° 04' 37"
Sunlit
Object is in daylight
Visualization observer readout
Local Sidereal Time21:47:50
Azimuth116.503° SE
Elevation-27.921°
Doppler factor1
Orbital elements
Apogee altitude446.835 km
Perigee altitude445.012 km
Semi-major axis6,824.06 km
Eccentricity0.0001336
Inclination43.0004°
RAAN200.9004°
Arg. of periapsis279.0702°
True anomaly81.01542°
Mean anomaly81.0003°
Eccentric anomaly81.00786°
Mean motion3.85016 °/min
BSTAR-0.000081602
Orbital period93.5 mins
Loading maneuver chart data...
Loading historical data...
Loading historical data...
Loading historical data...
Loading historical data...
Loading historical data...
Loading historical data...
Loading historical data...

STARLINK-32466 Visibility forecast

Observer location: undefined°, undefined

Span
Click to sort rows by Start time (UTC) header in descending order
Start Az.
Max El. time (UTC)
Max El. Az.
Max El.
End time (UTC)
End Az.
4 mins2024-12-27 16:31:41.476Z190.202° SSW2024-12-27 16:32:41.476Z160.443° S27.552°2024-12-27 16:35:41.476Z88.787° E
5 mins2024-12-27 18:08:41.476Z265.197° W2024-12-27 18:10:41.476Z316.727° NNW42.593°2024-12-27 18:13:41.476Z68.829° E
4 mins2024-12-27 19:47:41.476Z301.951° NW2024-12-27 19:49:41.476Z34.102° NE35.707°2024-12-27 19:51:41.476Z75.963° E
5 mins2024-12-27 21:25:41.476Z282.432° WNW2024-12-27 21:27:41.476Z153.329° SSE43.084°2024-12-27 21:30:41.476Z116.058° SE
|